Regional Weather Roundup
Issued by NWS Newport/Morehead, NC

Current Version | Previous Version | Text Only | Print | Product List | Glossary On
Versions: 1 2 3 4 5 6 7 8 9 10 11 12 13 14 15 16 17 18 19 20 21 22 23 24 25 26 27 28 29 30 31 32 33 34 35 36 37 38 39 40 41 42 43 44 45 46 47 48 49 50
000 ASUS42 KMHX 240610 RWRMHX WEATHER ROUNDUP FOR EASTERN NORTH CAROLINA NATIONAL WEATHER SERVICE NEWPORT/MOREHEAD CITY NC 200 AM EDT THU JUL 24 2014 NOTE: "FAIR" INDICATES FEW OR NO CLOUDS BELOW 12,000 FEET WITH NO SIGNIFICANT WEATHER AND/OR OBSTRUCTIONS TO VISIBILITY NCZ015>017-031-032-045>047-102-103-240700- NORTH COAST CITY SKY/WX TMP DP RH WIND PRES REMARKS EDENTON NOT AVBL ELIZABETH CITY CLEAR 77 75 93 SW10 29.89F KITTY HAWK NOT AVBL MANTEO NOT AVBL $$ NCZ045>047-081-094-103-104-240700- CENTRAL COAST CITY SKY/WX TMP DP RH WIND PRES REMARKS FRISCO PTCLDY 79 77 94 SW10 29.92F SWANQUARTER N/A 79 N/A N/A SW14G20 29.88S $$ NCZ095-097-098-100-101-240700- SOUTHERN COAST CITY SKY/WX TMP DP RH WIND PRES REMARKS BEAUFORT PTCLDY 81 77 88 SW15 29.94F CEDAR ISLAND N/A 79 N/A N/A SW9 29.97S JACKSONVILLE PTCLDY 76 74 93 SW6 29.94F NEWPORT NOT AVBL PINEY ISLAND PTCLDY 78 77 96 SW9 29.93F WILMINGTON PTCLDY 78 75 90 SW5 29.96S $$ NCZ011>013-027>030-043-044-078>080-089-090>093-098-240700- COASTAL PLAIN CITY SKY/WX TMP DP RH WIND PRES REMARKS AHOSKIE CLEAR 75 72 89 CALM 29.89F CLINTON NOT AVBL ELIZABETHTOWN NOT AVBL GOLDSBORO PTCLDY 76 76 98 S3 29.91F GREENVILLE CLEAR 77 75 94 SW8 29.93F HAVELOCK PTCLDY 78 73 84 SW8 29.95F KENANSVILLE NOT AVBL KINSTON NOT AVBL NEW BERN CLEAR 78 73 84 SW8 29.94F RICHLANDS CLEAR 75 72 88 SW8 29.94F ROANOKE RAPIDS NOT AVBL ROCKY MOUNT CLEAR 77 74 90 SW8 29.91F WASHINGTON PTCLDY 75 73 93 SW6 29.92F WHITEVILLE NOT AVBL $$ AMZ130-135-150-152-154-156-158-170-250-252-270-ANZ085-086-088-633-658-670-240700- MARINE OBSERVATIONS STATION/POSITION TIME TEMP WIND PRES WAVE SWELL AIR SEA DIR/SP/G HT/PER HT/PER (UTC) (F) (DEG/KT/KT) (MB) (FT/S) (FT/S) CHESAPEAKE LIGHT NOT AVBL BUOY 44014 0600 79 79 220/ 14/ 17 1011.0 4/ 6 2/ 9 DUCK 0500 80 74 230/ 12/ 18 1011.3 2E DUCK 0500 N/A 2/10 OREGON INLET 0500 80 84 220/ 15/ 20 1012.4 BUOY 44095 0600 78 N/A 4/ 6 20E OREGON INLET NOT AVBL HATTERAS CG 0500 78 82 230/ 9/ 12 1013.9 DIAMOND BUOY 0600 VRB 17/ 19 1013.2 5/ 4 2/ 8 CAPE LOOKOUT 0500 80 230/ 12/ 16 1014.3 BEAUFORT LAB 0500 80 81 230/ 5/ 11 1013.9 30 SE NEW RIVER 0500 80 81 240/ 16/ 17 1014.8 5 SE WRIGHTSVILL 0500 78 81 240/ 16/ 17 N/A BUOY 41002 0519 82 82 220/ 17/ 21 1017.3 5/ 5 2/ 8 BUOY 41004 0500 82 82 220/ 14/ 16 1015.1 3/ 6 2/ 6 $$

USA.gov is the U.S. government's official web portal to all federal, state and local government web resources and services.